Weather Data

Pearl Creek Farm: 8878 N Farm Road 75, Walnut Grove MO 65770

<== Previous Day (Monday 31 Dec 2012) | Next Day (Wednesday 02 Jan 2013) ==>

Summary Precipitation Data For Tuesday 01 January 2013

ElementValueUnits
Precipitation0.03"
New Snow Depth0"
New Snow Water EquivalentT
Total Snow DepthT
Total Snow Water Equivalent*T
NotesPrecipitation in gauge frozen solid. Most snow is gone, remaining only in patches where it touches bare ground.
SourcePearl Creek Farm

* Total Snow Water Equivalent is not measured every day.

Summary Temperature Data For Tuesday 01 January 2013

ElementValueUnits
High Temperature34 oF
Low Temperature18 oF
Average Temperature28 oF
High Humidity94 %
Low Humidity83 %
Average Humidity88 %
SourcePearl Creek Farm

Detail Temperature Data For Tuesday 01 January 2013

Date / TimeTemp (F)RH (%)Dew Pt (F)Report Date / TimeSource
2013-01-01 00:00:00 34 93 32.1 2013-01-27 10:51:56 Pearl Creek Farm
2013-01-01 00:30:00 34 93 32.1 2013-01-27 10:51:56 Pearl Creek Farm
2013-01-01 01:00:00 34 93 32.1 2013-01-27 10:51:56 Pearl Creek Farm
2013-01-01 01:30:00 34 93 32.1 2013-01-27 10:51:56 Pearl Creek Farm
2013-01-01 02:00:00 34 93 32.2 2013-01-27 10:51:56 Pearl Creek Farm
2013-01-01 02:30:00 34 94 32.3 2013-01-27 10:51:56 Pearl Creek Farm
2013-01-01 03:00:00 33 94 31.3 2013-01-27 10:51:56 Pearl Creek Farm
2013-01-01 03:30:00 33 93 31.2 2013-01-27 10:51:56 Pearl Creek Farm
2013-01-01 04:00:00 33 93 31.2 2013-01-27 10:51:56 Pearl Creek Farm
2013-01-01 04:30:00 32 93 30.1 2013-01-27 10:51:56 Pearl Creek Farm
2013-01-01 05:00:00 32 93 30.2 2013-01-27 10:51:56 Pearl Creek Farm
2013-01-01 05:30:00 31 93 29.1 2013-01-27 10:51:56 Pearl Creek Farm
2013-01-01 06:00:00 30 92 28.0 2013-01-27 10:51:56 Pearl Creek Farm
2013-01-01 06:30:00 30 92 28.0 2013-01-27 10:51:56 Pearl Creek Farm
2013-01-01 07:00:00 30 92 27.8 2013-01-27 10:51:56 Pearl Creek Farm
2013-01-01 07:30:00 30 91 27.7 2013-01-27 10:51:56 Pearl Creek Farm
2013-01-01 08:00:00 29 91 26.6 2013-01-27 10:51:56 Pearl Creek Farm
2013-01-01 08:30:00 28 91 25.6 2013-01-27 10:51:56 Pearl Creek Farm
2013-01-01 09:00:00 28 88 24.9 2013-01-27 10:51:56 Pearl Creek Farm
2013-01-01 09:30:00 28 89 25.2 2013-01-27 10:51:56 Pearl Creek Farm
2013-01-01 10:00:00 27 87 23.7 2013-01-27 10:51:56 Pearl Creek Farm
2013-01-01 10:30:00 27 87 23.5 2013-01-27 10:51:56 Pearl Creek Farm
2013-01-01 11:00:00 28 87 24.5 2013-01-27 10:51:56 Pearl Creek Farm
2013-01-01 11:30:00 28 87 24.5 2013-01-27 10:51:56 Pearl Creek Farm
2013-01-01 12:00:00 28 85 24.1 2013-01-27 10:51:56 Pearl Creek Farm
2013-01-01 12:30:00 29 85 24.9 2013-01-27 10:51:56 Pearl Creek Farm
2013-01-01 13:00:00 28 86 24.4 2013-01-27 10:51:56 Pearl Creek Farm
2013-01-01 13:30:00 28 86 24.4 2013-01-27 10:51:56 Pearl Creek Farm
2013-01-01 14:00:00 28 85 24.1 2013-01-27 10:51:56 Pearl Creek Farm
2013-01-01 14:30:00 28 85 24.1 2013-01-27 10:51:56 Pearl Creek Farm
2013-01-01 15:00:00 28 84 23.8 2013-01-27 10:51:56 Pearl Creek Farm
2013-01-01 15:30:00 28 83 23.5 2013-01-27 10:51:56 Pearl Creek Farm
2013-01-01 16:00:00 28 83 23.4 2013-01-27 10:51:56 Pearl Creek Farm
2013-01-01 16:30:00 28 83 23.4 2013-01-27 10:51:56 Pearl Creek Farm
2013-01-01 17:00:00 27 83 22.5 2013-01-27 10:51:56 Pearl Creek Farm
2013-01-01 17:30:00 26 84 21.7 2013-01-27 10:51:56 Pearl Creek Farm
2013-01-01 18:00:00 25 85 21.0 2013-01-27 10:51:56 Pearl Creek Farm
2013-01-01 18:30:00 24 87 20.6 2013-01-27 10:51:56 Pearl Creek Farm
2013-01-01 19:00:00 23 85 19.2 2013-01-27 10:51:56 Pearl Creek Farm
2013-01-01 19:30:00 22 87 18.6 2013-01-27 10:51:56 Pearl Creek Farm
2013-01-01 20:00:00 21 88 17.9 2013-01-27 10:51:56 Pearl Creek Farm
2013-01-01 20:30:00 21 87 17.6 2013-01-27 10:51:56 Pearl Creek Farm
2013-01-01 21:00:00 21 86 17.5 2013-01-27 10:51:56 Pearl Creek Farm
2013-01-01 21:30:00 21 86 17.5 2013-01-27 10:51:56 Pearl Creek Farm
2013-01-01 22:00:00 20 86 16.4 2013-01-27 10:51:56 Pearl Creek Farm
2013-01-01 22:30:00 19 86 15.5 2013-01-27 10:51:56 Pearl Creek Farm
2013-01-01 23:00:00 18 87 14.7 2013-01-27 10:51:56 Pearl Creek Farm
2013-01-01 23:30:00 19 86 15.5 2013-01-27 10:51:56 Pearl Creek Farm

A total of 48 rows are displayed.